Probability
13 25 32 23 13 14 29 61 89 98 98 95 83 69 64 62 59 52 38 20 6 1 2 2 1 1 1 3 2 1 0 0 0 0 0 0 0 0 0 0 0 0 0
30 47 49 29 22 30 41 62 87 98 98 95 83 64 49 45 47 50 47 31 11 5 9 7 3 2 4 5 4 1 0 0 0 0 0 0 0 0 0 0 0 0 0
47 67 65 44 43 54 57 67 83 87 81 77 70 55 36 26 33 46 50 36 18 18 27 21 7 5 7 8 6 2 0 0 0 0 0 0 0 0 0 0 0 0 0
61 78 77 62 62 63 57 62 69 59 44 41 46 46 36 27 34 45 45 36 28 33 41 30 11 5 7 9 8 4 1 0 0 0 0 0 0 0 0 0 0 0 0
78 87 86 76 73 65 51 51 52 32 15 15 26 35 34 31 39 47 42 37 36 35 33 22 8 3 4 7 9 8 3 1 0 0 0 0 0 0 0 0 0 0 0
83 88 88 86 82 65 46 42 41 26 11 8 14 20 21 21 28 33 30 29 27 21 14 9 3 1 1 4 8 8 4 1 0 0 0 0 0 0 0 0 0 0 0
76 79 80 78 69 47 30 27 33 32 18 6 5 8 10 10 10 12 13 13 11 7 4 3 1 0 0 1 3 4 2 0 0 0 0 0 0 0 0 0 0 0 0
55 52 49 43 31 20 16 19 32 36 22 6 1 2 5 3 2 3 6 5 3 2 1 0 0 0 0 0 1 1 0 0 0 0 0 0 0 0 0 0 0 0 0
20 18 15 11 8 13 20 25 34 35 21 5 1 2 2 1 0 3 6 5 2 1 0 0 0 0 0 0 0 0 0 0 0 0 0 0 0 0 0 0 0 0 0
1 0 0 1 10 29 43 40 33 29 19 7 3 3 2 1 0 2 3 3 1 0 0 0 0 0 0 0 0 0 0 0 0 1 0 0 0 0 0 0 0 0 0
0 0 0 3 22 53 72 61 38 32 31 21 11 9 5 2 2 1 1 1 0 0 0 0 0 0 0 0 0 0 0 0 0 0 0 0 0 0 0 0 0 0 0
0 0 0 3 24 62 87 81 59 54 60 51 38 30 21 13 5 2 1 1 0 0 0 0 0 0 0 0 0 0 0 0 0 0 0 0 0 0 0 0 0 0 0
0 0 0 1 14 43 72 81 77 81 87 83 71 60 47 33 15 4 3 2 0 0 0 0 0 0 0 0 0 0 0 0 0 0 0 0 0 0 0 0 0 0 0
0 0 0 0 3 17 37 55 72 89 98 97 91 74 56 47 32 15 9 6 1 0 0 0 0 0 0 0 0 0 0 0 0 0 0 0 0 0 0 0 0 0 0
0 1 1 1 1 4 13 27 50 76 91 97 94 73 51 51 53 40 26 13 3 0 0 0 0 0 0 0 0 0 0 0 0 0 0 0 0 0 0 0 0 0 0
9 13 18 20 19 19 21 26 39 57 77 88 89 75 58 62 73 70 54 34 17 8 2 1 0 0 0 0 0 0 0 0 0 0 0 0 0 0 0 0 0 0 0
19 23 30 35 37 38 40 40 43 54 69 80 85 80 75 78 84 82 73 61 45 26 14 7 2 0 0 0 0 0 0 0 0 0 0 0 0 0 0 0 0 0 0
13 14 17 22 25 28 32 34 38 45 56 66 75 78 81 84 82 74 66 62 53 36 24 14 4 0 0 0 0 0 0 0 0 0 0 0 0 0 0 0 0 0 0
2 1 1 3 4 6 9 12 15 19 25 35 46 54 59 62 60 51 40 35 31 24 18 12 4 0 0 0 0 0 0 0 0 0 0 0 0 0 0 0 0 0 0
0 0 0 0 0 0 0 0 0 1 3 8 14 18 21 23 24 21 16 13 9 7 6 4 2 0 0 0 0 0 0 0 0 0 0 0 0 0 0 0 0 0 0
0 0 0 0 0 0 0 0 0 0 0 0 0 0 1 1 2 3 3 2 1 1 1 1 0 0 0 0 0 0 0 0 0 0 0 0 0 0 0 0 0 0 0
0 0 0 0 0 0 0 0 0 0 0 0 0 0 0 0 0 0 0 0 0 0 0 0 0 0 0 0 0 0 0 0 0 0 0 0 0 0 0 0 0 0 0
0 0 0 0 0 0 0 0 0 0 0 0 0 0 0 0 0 0 0 0 0 0 0 0 0 0 0 0 0 0 0 0 0 0 0 0 0 0 0 0 0 0 0
0 0 0 0 0 0 0 0 0 0 0 0 0 0 0 0 0 0 0 0 0 0 0 0 0 0 0 0 0 0 0 0 0 0 0 0 0 0 0 0 0 0 0
0 0 0 0 0 0 0 0 0 0 0 0 0 0 0 0 0 0 0 0 0 0 0 0 0 0 0 0 0 0 0 0 0 0 0 0 0 0 0 0 0 0 0
0 0 0 0 0 0 0 0 0 0 0 0 0 0 0 0 0 0 0 0 0 0 0 0 0 0 0 0 0 0 0 0 0 0 0 0 0 0 0 0 0 0 0
Wind_Speed
9 9 8 5 4 6 7 9 9 7 5 4 2 2 2 3 2 2 4 4 2 3 4 3 4 4 4 4 4 3 3 3 3 4 3 1 2 4 2 2 2 4 4
11 11 8 5 3 4 4 5 8 7 5 4 3 2 3 3 4 3 3 3 4 5 3 5 3 3 4 5 5 4 3 1 2 4 3 2 1 1 2 1 2 3 1
15 14 10 7 5 7 5 6 8 7 3 3 2 2 2 2 3 4 3 5 6 5 4 4 4 3 3 4 5 6 6 2 2 2 4 4 3 2 2 4 2 3 2
12 14 11 9 8 8 6 9 9 7 5 5 4 4 4 3 4 4 4 5 6 5 3 4 4 3 2 4 5 6 5 6 3 4 3 5 5 4 3 2 3 5 4
12 14 11 10 10 9 6 8 9 7 6 5 4 3 3 2 2 3 5 5 5 5 5 5 5 5 4 4 5 4 6 5 6 5 6 5 2 4 4 3 3 3 3
10 13 10 11 10 7 6 7 7 6 5 4 4 4 4 4 3 4 4 3 2 3 5 6 6 6 5 4 4 4 6 6 7 7 8 6 3 3 2 3 5 4 4
10 13 12 10 8 8 7 6 7 7 6 5 5 5 5 5 6 5 5 4 2 2 3 4 4 5 5 6 5 4 5 7 9 10 8 7 5 4 3 3 4 4 3
11 12 10 9 8 8 7 6 7 7 7 6 7 7 6 2 1 3 4 3 2 2 1 1 2 4 5 5 5 5 5 5 7 9 10 6 6 4 4 3 4 3 3
12 13 11 11 9 8 7 7 7 7 6 7 5 3 3 4 2 2 4 3 2 2 1 2 2 2 2 3 5 4 5 5 6 6 7 6 4 5 3 2 3 5 4
7 9 11 12 11 10 9 8 8 8 7 6 4 3 2 3 2 1 4 4 3 4 4 4 4 4 3 3 4 4 4 5 4 3 4 3 3 2 5 2 1 2 5
5 3 3 7 11 11 10 8 8 7 8 6 5 5 3 2 4 2 3 4 3 4 4 3 3 4 4 4 4 4 5 6 5 4 4 3 3 1 5 4 2 2 2
2 0 1 2 6 10 12 11 10 8 7 6 6 6 6 5 4 5 5 5 5 5 4 5 4 4 5 4 4 4 5 6 6 5 5 4 3 3 3 5 3 2 2
2 3 2 2 3 6 8 10 11 9 8 7 6 7 6 6 6 5 6 6 5 5 5 4 4 5 6 5 5 5 4 4 5 5 5 4 5 4 0 2 1 2 4
6 2 2 2 2 3 4 5 7 8 10 8 6 6 6 7 6 5 6 6 6 6 6 6 5 5 6 6 7 7 6 5 5 5 5 5 5 5 3 1 0 1 3
5 3 1 1 2 3 4 4 4 6 8 8 7 6 5 5 6 6 6 6 6 6 6 5 5 4 4 6 8 8 8 7 6 6 6 7 8 9 7 4 3 1 2
3 4 3 3 1 1 2 3 2 3 5 7 7 6 5 3 4 4 6 6 6 5 5 4 4 5 5 8 10 7 6 7 7 8 8 8 10 13 14 12 8 7 6
10 9 9 8 9 9 7 5 2 2 2 3 3 4 3 2 2 3 4 5 5 5 5 5 5 5 5 10 11 10 5 6 8 9 9 9 10 12 8 11 14 13 15
12 10 10 10 10 9 8 8 8 8 8 7 6 3 1 1 2 4 4 4 4 4 5 5 5 5 5 10 11 10 5 5 5 5 5 7 8 10 10 8 7 8 9
10 10 9 9 10 10 9 9 9 9 8 7 7 7 7 5 5 4 5 5 4 4 4 4 5 5 5 11 11 9 4 5 6 6 6 5 5 12 15 8 6 4 3
7 8 8 8 8 9 9 9 8 7 7 7 7 7 7 7 6 6 5 4 4 4 3 2 3 4 5 9 13 11 4 5 5 5 4 5 3 5 11 6 4 2 1
6 6 7 6 6 7 8 8 7 6 5 5 5 5 5 4 5 5 4 4 3 3 3 2 1 2 2 5 11 11 5 4 4 3 2 2 9 10 8 3 3 4 2
5 5 5 4 5 6 5 6 4 3 3 3 4 3 4 5 4 4 4 4 3 3 2 2 2 2 1 2 6 9 8 5 4 4 2 4 9 9 7 4 6 5 2
4 3 2 3 4 5 5 4 2 2 3 4 3 3 3 4 3 3 3 3 3 3 3 3 3 2 1 1 2 5 5 4 2 1 5 9 8 7 5 6 6 3 1
4 1 0 3 3 3 3 4 3 3 3 4 2 3 4 4 4 4 5 5 6 5 5 4 4 3 2 2 1 1 2 2 2 3 7 9 6 3 6 6 2 1 1
3 1 3 3 1 2 4 4 4 5 3 3 3 4 4 3 3 4 4 4 5 4 4 3 4 4 3 4 6 2 1 1 2 1 3 3 3 3 3 3 2 2 2
2 2 1 2 3 3 4 5 3 5 5 3 4 3 2 2 1 2 3 6 6 6 7 5 4 3 4 5 3 2 4 5 5 2 1 2 3 3 4 3 2 1 1
Wind_Direction
178 147 133 133 144 154 157 148 150 148 134 137 170 171 159 135 131 125 164 181 226 231 166 165 193 173 164 168 163 151 151 141 150 110 118 182 184 103 139 144 102 102 139
151 128 130 131 182 142 113 124 127 125 130 145 163 163 173 181 170 172 191 188 220 233 189 183 201 180 167 175 142 125 133 197 174 141 148 171 45 306 165 110 142 148 133
153 143 146 149 148 117 115 95 101 103 116 144 146 165 190 225 164 177 192 209 227 236 190 195 197 194 172 170 155 146 155 182 281 178 153 167 187 190 188 189 201 127 139
147 140 143 141 137 126 127 123 121 136 167 177 186 187 184 193 190 183 186 200 211 222 196 197 215 208 187 182 180 162 157 155 204 280 220 187 165 162 166 205 199 168 181
128 133 139 140 129 125 132 130 138 150 166 181 181 190 208 205 177 151 184 196 198 206 198 207 211 216 200 196 185 181 171 165 172 224 262 252 207 186 144 178 194 173 178
126 129 124 116 117 125 127 126 137 143 155 176 184 195 219 221 196 176 183 181 191 217 217 207 213 212 201 203 195 186 185 184 184 202 243 251 217 217 177 166 178 179 192
127 121 120 124 133 137 135 138 144 146 160 182 204 212 216 224 211 181 176 176 172 192 232 230 227 229 215 209 209 201 198 195 199 201 218 250 232 201 217 161 171 177 173
122 129 138 140 148 147 147 154 152 156 168 194 208 209 183 194 242 134 141 148 140 156 201 221 214 226 226 213 203 211 215 216 213 205 201 227 266 241 211 173 160 158 158
142 148 151 152 158 156 160 163 160 162 176 206 203 186 166 177 174 152 126 128 139 148 201 228 213 196 189 196 192 208 220 224 225 213 202 198 225 289 275 196 156 149 160
141 156 162 161 164 165 170 174 178 176 184 205 177 140 177 156 108 42 135 148 173 164 179 228 198 162 158 173 184 202 220 226 230 221 210 202 170 257 287 280 222 152 157
98 119 176 170 167 166 170 176 189 185 177 188 167 153 193 163 145 181 150 149 181 166 177 203 231 164 163 179 191 205 211 215 214 206 190 169 136 157 276 278 262 251 193
88 215 228 203 177 171 175 182 193 194 175 179 171 174 177 168 184 186 175 181 198 180 185 203 201 163 161 172 183 193 194 192 187 179 170 155 130 96 286 275 270 277 293
272 219 185 209 213 185 183 186 191 187 172 179 182 178 181 184 194 197 178 186 196 185 191 212 193 165 163 170 174 174 174 171 168 164 160 147 124 114 170 301 314 349 316
315 330 128 185 214 217 204 204 196 180 171 178 190 193 202 186 183 192 179 182 197 196 200 208 194 174 168 170 174 177 182 184 184 183 182 175 159 157 172 196 93 22 312
298 310 292 195 181 208 216 208 203 190 174 172 185 198 224 195 184 184 174 189 202 203 206 203 184 180 182 189 183 181 182 186 194 202 206 205 201 196 198 197 181 175 273
9 20 27 34 25 154 164 150 166 188 167 169 185 192 219 212 183 184 180 196 200 208 205 195 185 188 207 196 184 177 184 191 202 214 218 218 219 220 220 223 220 217 232
49 44 41 40 44 47 49 60 51 105 121 148 169 174 188 213 214 225 215 204 198 200 210 203 201 205 198 175 176 186 209 216 214 212 210 212 214 215 222 229 231 235 237
42 42 45 43 49 53 54 51 42 39 36 34 28 29 48 289 279 273 267 247 230 214 209 214 215 215 193 184 185 186 218 256 252 234 213 203 200 200 205 213 221 228 233
33 36 39 43 39 36 41 52 54 48 40 30 31 31 32 21 5 342 315 301 291 282 253 229 221 220 204 191 192 186 213 246 256 249 233 226 216 198 195 203 221 225 225
25 38 36 38 48 45 42 47 47 45 37 28 33 35 38 35 23 6 357 348 338 320 305 266 234 226 219 198 197 197 218 243 254 254 238 214 173 149 178 193 202 205 202
22 48 46 33 45 62 60 49 42 41 36 32 39 39 29 28 28 0 356 357 353 341 335 322 298 275 258 204 204 202 222 246 273 275 247 150 140 134 141 133 106 122 100
40 48 54 44 40 46 69 71 41 29 50 47 40 44 55 36 19 7 4 4 9 15 16 3 341 320 302 187 211 212 226 264 296 286 257 129 140 138 134 118 117 108 86
69 57 62 65 65 54 44 63 43 348 73 62 54 42 67 75 26 6 359 358 7 15 23 26 14 357 14 113 195 220 245 242 272 311 118 127 136 130 115 111 117 128 165
80 353 25 75 64 65 65 51 10 334 88 93 63 70 63 61 45 27 20 31 31 25 26 23 11 359 5 19 337 222 192 170 177 125 115 125 138 133 122 129 147 206 164
124 291 35 35 0 69 79 69 16 342 358 96 83 78 80 77 67 69 49 42 57 37 22 12 357 2 3 2 348 339 54 51 25 96 145 151 159 158 134 127 118 103 117
126 141 107 298 313 41 70 85 35 350 357 46 60 62 85 90 101 127 116 66 70 61 51 32 5 350 354 332 343 47 87 71 42 22 232 190 172 160 146 144 149 176 233